Home > Weather > Tunis > Past weeks

Flag for Tunisia Past Weather in Tunis, Tunisia — Yesterday and Last 2 Weeks

Now
88 °F

Sunny.


Feels Like: 85 °F
Forecast: 74 / 102 °F
Wind: 6 mph from North

Location: Tunis-Carthage

Current Time: Jun 29, 2016 at 12:07:03 PM

Latest Report: Jun 29, 2016 at 11:30 AM


Visibility: 10 mi

Pressure: 30.01 "Hg

Humidity: 29%

Dew Point: 52 °F

Location of TunisLocation

Past Weather in Tunis — Graph

°F

Tunis Temperature Yesterday

Maximum temperature yesterday: 90 °F (at 1:30 PM)
Minimum temperature yesterday: 70 °F (at 11:00 PM)
Average temperature yesterday: 79 °F

High & Low Weather Summary for the Past Weeks

 TemperatureHumidityPressure
High95 °F (Jun 15, 1:30 PM)88% (Jun 18, 9:30 PM)30.18 "Hg (Jun 18, 9:30 PM)
Low66 °F (Jun 18, 11:30 PM)23% (Jun 26, 11:30 AM)29.59 "Hg (Jun 15, 5:30 PM)
Average78 °F55%29.99 "Hg
* Reported Jun 14 11:00 AM — Jun 29 11:00 AM, Tunis, Weather by CustomWeather, © 2016

Note: Actual official high and low records may vary slightly from our data, if they occured in-between our weather recording intervals... More about our weather records

Advertising

Tunis Weather History for the Previous 24 Hours

Scroll right to see more
 ConditionsComfort  
Time TempWeatherWind HumidityBarometerVisibility
11:00 AM
Wed, Jun 29
86 °FSunny.6 mph31%30.01 "Hg10 mi
10:30 AM84 °FSunny.5 mph37%30.01 "Hg10 mi
10:00 AM82 °FSunny.5 mph42%30.01 "Hg10 mi
9:30 AM81 °FSunny.5 mph48%30.01 "Hg10 mi
9:00 AM81 °FPassing clouds.6 mph51%30.01 "HgN/A
8:30 AM79 °FSunny.3 mph54%30.01 "Hg10 mi
8:00 AM79 °FSunny.No wind51%30.04 "Hg10 mi
7:30 AM79 °FSunny.No wind54%30.04 "Hg10 mi
7:00 AM77 °FSunny.1 mph57%30.01 "Hg10 mi
6:30 AM73 °FSunny.2 mph69%30.01 "Hg10 mi
6:00 AM68 °FSunny.2 mph78%30.01 "Hg10 mi
5:30 AM66 °FSunny.1 mph78%30.01 "Hg10 mi
5:00 AM66 °FClear.No wind83%30.01 "Hg10 mi
4:00 AM66 °FClear.2 mph83%30.01 "Hg10 mi
3:30 AM70 °FClear.No wind73%30.01 "Hg10 mi
3:00 AM72 °FClear.2 mph73%30.01 "Hg10 mi
2:30 AM72 °FPassing clouds.3 mph73%30.01 "HgN/A
2:00 AM70 °FClear.No wind83%30.01 "Hg10 mi
1:30 AM68 °FClear.2 mph78%30.04 "Hg10 mi
1:00 AM68 °FClear.No wind78%30.04 "Hg10 mi
12:30 AM70 °FClear.No wind73%30.04 "Hg10 mi
12:00 AM70 °FClear.No wind73%30.04 "Hg10 mi
11:30 PM
Tue, Jun 28
70 °FClear.1 mph73%30.04 "Hg10 mi
11:00 PM70 °FClear.3 mph73%30.04 "Hg10 mi
10:30 PM72 °FPassing clouds.3 mph69%30.04 "HgN/A
10:00 PM73 °FClear.2 mph65%30.04 "Hg10 mi
9:30 PM73 °FClear.2 mph69%30.04 "Hg10 mi
9:00 PM73 °FClear.9 mph69%30.04 "Hg10 mi
8:30 PM73 °FClear.7 mph74%30.04 "Hg10 mi
8:00 PM75 °FClear.8 mph69%30.04 "Hg10 mi
7:30 PM75 °FPassing clouds.7 mph69%30.04 "HgN/A
7:00 PM77 °FPassing clouds.12 mph65%30.01 "HgN/A
6:30 PM79 °FSunny.16 mph58%30.01 "Hg10 mi
6:00 PM81 °FSunny.20 mph51%30.01 "Hg10 mi
5:30 PM82 °FSunny.16 mph48%30.01 "Hg10 mi
5:00 PM82 °FPassing clouds.15 mph51%30.01 "HgN/A
4:30 PM84 °FPassing clouds.16 mph45%30.01 "HgN/A
4:00 PM84 °FSunny.16 mph45%30.01 "Hg10 mi
3:30 PM90 °FPassing clouds.16 mph27%30.01 "HgN/A
3:00 PM90 °FSunny.20 mph27%30.01 "Hg10 mi
2:30 PM90 °FPassing clouds.16 mph27%30.04 "HgN/A
2:00 PM90 °FPassing clouds.16 mph27%30.04 "HgN/A
1:30 PM90 °FPassing clouds.16 mph27%30.04 "HgN/A
1:00 PM88 °FSunny.15 mph29%30.07 "Hg10 mi
12:30 PM88 °FPassing clouds.15 mph29%30.07 "HgN/A
12:00 PM88 °FPassing clouds.17 mph29%30.07 "HgN/A
Weather by CustomWeather, © 2016

See weather overviewHow to use our weather pages